Regional Weather Roundup
Issued by NWS Cleveland, OH

Home | Current Version | Previous Version | Graphics & Text | Print | Product List | Glossary On
Versions: 1 2 3 4 5 6 7 8 9 10 11 12 13 14 15 16 17 18 19 20 21 22 23 24 25 26 27 28 29 30 31 32 33 34 35 36 37 38 39 40 41 42 43 44 45 46 47 48 49 50
000
ASUS41 KCLE 261400
RWRCLE
OHIO REGIONAL WEATHER ROUNDUP
NATIONAL WEATHER SERVICE WILMINGTON, OH
1000 AM EDT TUE SEP 26 2017

NOTE: "FAIR" INDICATES FEW OR NO CLOUDS BELOW 12,000 FEET WITH NO
SIGNIFICANT WEATHER AND/OR OBSTRUCTIONS TO VISIBILITY.

OHZ001>008-015>018-024>027-034-035-043-044-261500-
   NORTHWEST OHIO

CITY           SKY/WX    TMP DP  RH WIND       PRES   REMARKS
DEFIANCE       FAIR      73  63  70 SW5       30.02S
FINDLAY        FAIR      77  63  61 SW6       30.02S
TOLEDO EXPRESS FAIR      75  66  73 SW3       30.01S
TOLEDO EXEC    FAIR      76  64  66 W7        30.02S
LIMA           FAIR      76  65  68 SW6       30.04S
$$

OHZ009>014-019>023-028>033-038-089-261500-
   NORTHEAST OHIO

CITY           SKY/WX    TMP DP  RH WIND       PRES   REMARKS
CLE-HOPKINS    FAIR      80  63  55 SW7       30.05S
CLE-LAKEFRONT  FAIR      80  62  54 S6        30.02R
CUY CO. ARPT   MOSUNNY   84  63  48 SW8       30.04S
LORAIN-ELYRIA  FAIR      76  60  57 SW5       30.04S
ASHTABULA      FAIR      75  66  73 S5        30.06S
AKRON-CANTON   FAIR      78  63  59 S3        30.07R
WOOSTER        FAIR      76  65  68 CALM      30.07R
MANSFIELD      FAIR      76  64  66 S3        30.07R
YOUNGSTOWN     FAIR      77  66  68 SW3       30.07R
$$

OHZ042-051>053-060>062-070>072-077>081-261500-
  SOUTHWEST OHIO

CITY           SKY/WX    TMP DP  RH WIND       PRES   REMARKS
CINC-COVINGTON FAIR      78  67  68 CALM      30.05R
CINC-LUNKEN    FAIR      71  68  90 CALM      30.05S
HAMILTON       FAIR      73  67  81 CALM      30.06R
DAYTON         FAIR      77  64  64 SW5       30.06S
WRIGHT-PAT AFB FAIR      73  66  76 CALM      30.05S
DAYTON GENERAL FAIR      77  64  64 CALM      30.05R
WILMINGTON     FAIR      80  67  64 CALM      30.05S
$$

OHZ036-037-039>041-045>050-054>059-063>069-073>076-082>088-261500-
  CENTRAL AND SOUTHEAST OHIO

CITY           SKY/WX    TMP DP  RH WIND       PRES   REMARKS
COLUMBUS       FAIR      75  66  73 CALM      30.05R
OSU AIRPORT    FAIR      77  67  71 CALM      30.05S
BOLTON FIELD   SUNNY     75  66  73 CALM      30.06R
RICKENBACK AFB NOT AVBL
NEWARK         FAIR      73  64  73 CALM      30.05S
MARION         FAIR      75  64  68 CALM      30.06R
LANCASTER      FAIR      73  65  75 CALM      30.06R
ZANESVILLE     FAIR      73  64  73 CALM      30.06S
NEW PHILLY     FAIR      74  65  73 CALM      30.07S
$$



USA.gov is the U.S. government's official web portal to all federal, state and local government web resources and services.